Location: De Greiden
(52.9496°N, 5.9137°E)
Time: 02:14:12
(UTC+00:00)

Nadezhda 4 Rocket - Pass Details

Date: 24 January 2021
Orbit: 949 x 993 km, 82.9° (Epoch: 26 February)

Event Time Altitude Azimuth Distance (km) Brightness Sun altitude
Rises 17:02:05 0° 165° (SSE) 3,668 7.1 -8.4°
Reaches altitude 10° 17:04:41 10° 159° (SSE) 2,718 6.3 -8.7°
Maximum altitude 17:10:32 44° 90° (E) 1,308 4.3 -9.6°
Drops below altitude 10° 17:16:20 10° 20° (NNE) 2,707 6.0 -10.4°
Sets 17:18:56 0° 14° (NNE) 3,652 6.7 -10.8°
